Notices

What's New in latest Release from April 7th, 2021:

- Updated Glossary, including Speed of Maximum Gust, and Total Hourly Precipitation

- Updated national and regional climate services offices contacts and prices information

- Addition of station inventory lists for 1981-2010, 1971-2000, and 1961-1990 Normals.

If you haven't already, please take our survey and provide feedback about our website: https://eccc.sondage-survey.ca/f/LanguageSelection.aspx?s=442ca660-fcf1-47c0-95a9-59707d6fd709

Hourly Data Report for November 09, 2017

CARBERRY CS
MANITOBA

49°54'20.900" N
99°21'26.800" W
383.50 m
5010547
71170
WZE

Download Data

Hourly Data (November 2017)
Hourly Data Report for November 9, 2017
TIME
LST
Temp Definition
°C
Dew Point Definition
°C
Rel Hum Definition
%
Precip. Amount Definition
mm

Wind Dir Definition
10's deg

Wind Spd Definition
km/h
Visibility Definition
km
Stn Press Definition
kPa
Hmdx Definition


Wind Chill Definition


Weather Definition


00:00 -16.9 -20.0 76 0.0 27 15   97.98   -25 LegendNANA
01:00 -18.7 -21.1 81 0.0 27 14   97.97   -27 LegendNANA
02:00 -19.0 -21.5 81 0.0 27 16   98.01   -28 LegendNANA
03:00 -19.1 -21.4 82 0.0 28 15   98.06   -28 LegendNANA
04:00 -20.3 -22.6 82 0.0 26 17   98.10   -30 LegendNANA
05:00 -20.9 -23.1 82 0.0 25 14   98.14   -30 LegendNANA
06:00 -19.3 -21.6 82 0.0 26 17   98.15   -29 LegendNANA
07:00 -18.0 -20.4 82 0.0 26 11   98.17   -25 LegendNANA
08:00 -17.0 -19.4 81 0.0 26 14   98.22   -25 LegendNANA
09:00 -16.6 -19.3 79 0.0 26 15   98.28   -25 LegendNANA
10:00 -15.3 -19.0 73 0.0 26 13   98.36   -23 LegendNANA
11:00 -14.2 -19.2 66 0.0 27 11   98.41   -21 LegendNANA
12:00 -12.6 -18.1 64 0.0 30 11   98.47   -19 LegendNANA
13:00 -11.7 -18.4 58 0.0 26 9   98.46   -17 LegendNANA
14:00 -10.8 -17.9 56 0.4 29 4   98.45   -13 LegendNANA
15:00 -10.9 -17.7 58 0.0 2 6   98.45   -15 LegendNANA
16:00 -11.9 -18.1 60 0.0 4 5   98.44   -15 LegendNANA
17:00 -15.0 -20.3 64 0.0 7 11   98.42   -22 LegendNANA
18:00 -16.2 -20.2 72 0.0 18 8   98.49   -22 LegendNANA
19:00 -16.3 -19.7 75 0.0 16 9   98.45   -22 LegendNANA
20:00 -18.4 -21.0 80 0.0 12 7   98.42   -24 LegendNANA
21:00 -18.4 -20.5 84 0.0 13 12   98.39   -26 LegendNANA
22:00 -18.7 -21.0 82 0.0 12 11   98.37   -26 LegendNANA
23:00 -18.9 -21.4 81 0.0 13 12   98.34   -27 LegendNANA

Notes on Data Quality.

Legend

  • E = Estimated
  • M = Missing
  • NA = Not Available*
  • [empty] = Indicates an unobserved value
Date modified: